Tracking 28126 objects as of 1-Oct-2023
HD Live streaming from Space Station
objects crossing your sky now

THORAD AGENA D DEB

Track THORAD AGENA D DEB now!
10-day predictions


NORAD ID: 17719
Int'l Code: 1970-025PH
Perigee: 683.5 km
Apogee: 800.4 km
Inclination: 99.0 °
Period: 99.5 minutes
Semi major axis: 7112 km
RCS: 0.0123 m2 (small)
Launch date: April 8, 1970
Source: United States (US)
Launch site: AIR FORCE WESTERN TEST RANGE (AFWTR)

Note: This is SATELLITE DEBRIS
Your satellite tracking list
Your tracking list is empty




NASA's NSSDC Master Catalog

Two Line Element Set (TLE):
1 17719U 70025PH  23273.26655383  .00029254  00000-0  76607-2 0  9994
2 17719  99.0418 194.1844 0082217  39.4520 112.9676 14.47197502976792
Source of the keplerian elements: AFSPC